SCP
-0 -0 -0 0 0 -0 0 0 0 0 0 0 0 0 0 0 0 0 0 0 0 -0 0 0 -0 0 0 0 0 0 0 0 0 0 0 0 0 0 0 0 0 0 0 0 0 0 0 0 0
-0 0 -0 0 0 -0 -0 0 0 0 0 0 0 0 0 0 0 0 0 0 0 0 0 0 0 0 0 0 0 0 0 0 0 0 0 0 0 0 0 0 0 0 0 0 0 0 0 0 0
-0 -0 -0 -0 -0 -0 0 0 0 0 0 0 0 0 0 0 0 0 0 0 0 0 0 0 0 0 0 0 0 0 0 0 0 0 0 0 0 0 0 0 0 0 0 0 0 0 0 0 0
0 -0 -0 0 0 -0 0 0 0 0 0 0 0 0 0 0 0 0 0 0 0 0 0 0 0 0 0 0 0 0 0 0 0 0 0 0 0 0 0 0 0 0 0 0 0 0 0 0 0
0 0 0 0 0 0 0 -0 -0 0 0 0 0 0 0 0 0 0 0 0 0 0 0 0 0 0 0 0 0 0 0 0 0 0 0 0 0 0 0 0 0 0 0 0 0 0 0 0 0
0 0 0 0 0 0 0 0 0 0 0 0 0 0 0 0 0 0 0 0 0 0 1 1 0 0 0 0 0 0 0 0 0 0 0 0 0 0 0 0 0 0 0 0 0 0 0 0 0
0 0 0 0 0 0 0 0 0 0 0 0 0 0 0 0 0 0 0 0 0 0 0 1 1 1 1 0 0 0 0 0 0 0 0 0 0 0 0 0 0 0 0 0 0 0 0 0 0
0 0 0 0 0 0 0 0 0 0 0 0 0 0 0 0 0 0 0 0 0 0 0 0 1 1 1 1 1 0 0 0 0 0 0 0 0 0 0 0 0 0 0 0 0 0 0 0 0
0 0 0 0 0 0 0 0 0 0 0 0 0 0 0 0 0 0 0 0 0 0 0 0 0 1 1 1 1 1 1 0 1 0 0 1 1 0 0 0 0 0 0 0 0 0 0 0 0
0 0 0 0 0 0 0 0 0 0 0 0 0 0 0 0 0 0 0 0 0 0 1 0 1 1 1 1 1 1 1 1 1 1 1 1 0 0 0 0 0 0 0 0 0 0 0 0 0
0 0 0 0 0 0 0 0 0 0 -0 0 0 0 0 0 0 0 0 0 0 0 1 1 1 1 1 1 1 1 1 1 1 1 1 1 0 0 0 0 0 0 0 0 0 0 0 0 0
0 0 0 0 0 0 0 0 0 0 0 0 0 0 0 0 0 0 0 0 1 1 1 1 1 1 1 1 1 1 1 0 0 0 0 1 0 0 0 0 0 0 0 0 0 0 0 0 0
0 0 0 0 0 0 0 0 0 0 0 0 0 0 0 0 0 0 0 0 1 1 1 1 1 1 1 1 1 1 1 0 0 0 0 0 0 0 0 0 0 0 0 0 0 0 0 0 0
0 0 0 0 0 0 0 0 0 0 0 0 0 0 0 0 0 0 0 0 1 1 1 1 1 1 1 1 1 1 0 0 0 0 0 0 0 0 0 0 0 0 0 0 0 0 0 0 0
0 0 0 0 0 0 0 0 0 0 0 0 0 0 0 0 0 0 0 0 1 1 1 1 1 1 1 1 1 1 0 0 0 0 0 0 0 0 0 0 0 0 0 0 0 0 0 0 0
0 0 0 0 0 0 0 0 0 0 0 0 0 0 0 0 0 0 0 0 0 1 1 1 2 1 1 1 1 1 0 0 0 0 0 0 0 0 0 0 0 0 0 0 0 0 0 0 0
0 0 0 0 0 0 0 0 0 0 0 0 0 0 0 0 0 0 0 0 0 0 2 2 2 2 1 1 1 1 0 0 0 0 0 0 0 0 0 0 0 0 0 0 0 0 0 0 0
0 0 0 0 0 0 0 0 0 0 0 0 0 0 0 0 0 0 0 0 0 0 0 1 2 2 2 1 0 0 0 0 0 0 0 0 0 0 0 0 0 0 0 0 0 0 0 0 0
0 0 0 0 0 0 0 0 0 0 0 0 0 0 0 0 0 0 0 0 0 0 0 0 2 2 2 1 1 0 1 0 0 0 0 0 0 0 0 0 0 0 0 0 0 0 0 0 0
0 0 0 0 0 0 0 0 0 0 0 0 0 0 0 0 0 0 0 0 0 0 0 0 1 2 2 2 2 1 0 0 0 0 0 0 0 0 0 0 0 0 0 0 0 0 0 0 0
0 0 0 0 0 0 0 0 0 0 0 0 0 0 0 0 0 0 0 0 0 0 0 0 1 1 2 2 0 0 0 0 0 0 0 0 0 0 0 0 0 0 0 0 0 0 0 0 0
0 0 0 0 0 0 0 0 0 -0 0 0 0 0 0 0 0 0 0 0 0 0 0 0 1 1 2 1 1 1 1 0 0 0 0 0 0 0 0 0 0 0 0 0 0 0 0 0 0
0 0 0 0 0 0 0 0 0 0 0 0 0 0 0 0 0 0 0 0 0 0 0 0 1 2 2 1 1 1 0 0 0 0 0 0 0 0 0 0 0 0 0 0 0 0 0 0 0
0 0 0 0 0 0 0 0 0 0 0 0 0 0 0 0 0 0 0 0 0 0 0 0 1 1 2 2 1 1 0 0 0 0 0 0 0 0 0 0 0 0 0 0 0 0 0 0 0
0 0 0 0 0 0 0 0 0 0 0 0 -0 0 0 0 0 0 0 0 0 0 0 0 0 1 1 1 1 0 0 0 0 0 0 0 0 0 0 0 0 0 0 0 0 0 0 0 0
0 0 0 0 0 0 0 0 0 0 0 0 0 0 0 0 0 0 0 0 0 0 0 0 0 0 0 0 0 0 0 0 0 0 0 0 0 0 0 0 0 0 0 0 0 0 0 0 0
0 0 0 0 0 0 0 0 0 0 0 0 0 0 0 0 0 0 0 0 0 0 0 0 0 0 0 0 0 0 0 0 0 0 0 0 0 0 0 0 0 0 0 0 0 0 0 0 0
0 0 0 0 0 0 0 0 0 0 0 0 0 0 0 0 0 0 0 0 0 0 0 0 0 0 0 0 0 0 0 0 0 0 0 0 0 0 0 0 0 0 0 0 0 0 0 0 -0
0 0 0 0 0 0 0 0 0 0 0 0 0 0 0 0 0 0 0 0 0 0 0 0 0 0 0 0 0 0 0 0 0 0 0 0 0 0 0 0 0 0 0 0 0 0 0 0 0
0 0 0 0 0 0 0 0 0 0 0 0 0 0 0 0 0 0 0 0 0 0 0 0 0 0 0 0 0 0 0 0 0 0 0 0 0 0 0 0 0 0 0 0 0 0 0 0 0
Wind_Speed_500mb
5 6 1 3 7 9 4 8 3 11 8 9 3 3 4 4 3 7 4 21 29 37 43 43 39 35 29 24 22 21 24 20 20 18 13 14 16 16 14 11 11 14 18 19 20 21 24 20 25
7 6 4 6 9 5 8 7 3 4 5 4 7 9 9 5 2 3 20 17 31 32 39 37 35 31 28 24 21 23 21 23 20 17 15 14 13 14 12 10 7 11 16 18 19 21 22 22 24
9 7 3 9 6 5 6 5 6 10 13 6 4 7 2 1 1 17 3 13 29 32 35 34 31 28 26 28 27 23 19 20 18 17 14 16 11 11 11 9 8 8 13 16 17 19 18 19 22
5 5 9 7 8 10 9 7 9 18 5 1 6 4 5 6 10 7 11 16 22 28 32 31 29 27 25 23 23 22 20 17 16 16 15 18 16 10 10 11 9 6 9 12 14 14 16 16 18
6 4 7 4 7 9 8 12 15 7 5 4 2 3 4 9 12 10 10 16 18 27 32 32 31 28 26 24 22 20 19 18 17 17 16 18 13 9 12 11 10 6 6 9 10 10 14 12 14
5 5 7 4 8 8 11 11 9 4 5 6 7 1 3 10 13 12 16 16 19 20 31 31 27 27 26 25 24 21 19 18 17 15 16 17 15 11 11 12 12 8 5 6 8 8 9 10 11
11 7 6 4 6 10 5 21 6 8 7 6 6 3 6 16 21 16 19 20 22 22 25 29 29 28 26 25 22 20 18 17 15 14 16 13 15 13 12 11 12 13 7 5 7 9 6 7 9
5 7 6 8 6 9 6 15 5 15 1 10 3 3 9 14 25 24 26 25 25 24 24 26 29 29 30 31 28 24 20 18 15 14 15 14 15 16 16 13 12 14 11 6 5 8 6 5 7
6 7 3 8 10 7 8 14 9 22 11 16 8 15 16 16 27 32 34 34 33 31 30 32 31 29 28 29 30 27 25 21 17 16 17 17 18 19 17 15 14 16 13 10 5 4 5 3 5
8 6 13 7 6 2 12 8 26 17 25 15 25 19 22 22 36 43 43 40 39 38 37 35 34 30 27 26 30 30 28 26 23 18 18 19 20 19 18 17 16 16 14 11 9 7 7 7 7
7 10 7 8 14 14 11 19 12 11 13 11 17 25 25 19 45 50 49 46 41 44 41 40 36 28 28 26 32 34 33 30 27 24 21 22 24 25 22 21 19 17 15 12 11 10 10 10 10
3 16 14 13 11 16 8 19 9 24 49 43 39 33 36 27 50 57 56 53 50 50 48 45 41 34 34 25 33 32 34 33 30 28 26 25 27 25 22 21 18 17 14 13 13 13 12 15 13
6 8 19 27 31 30 29 27 19 31 56 54 52 47 39 34 38 50 54 58 61 60 51 50 48 44 38 27 28 34 32 34 28 28 28 28 28 26 25 24 24 19 16 12 12 16 16 17 18
4 15 20 23 36 34 16 23 1 45 32 38 40 45 43 39 35 45 56 60 65 62 55 49 52 47 44 32 26 31 30 30 31 31 29 29 29 27 29 25 22 21 20 17 13 16 17 21 23
9 10 15 18 14 8 1 7 12 22 32 39 31 32 37 40 37 43 57 65 67 70 60 54 60 51 44 40 32 30 30 29 32 32 32 31 28 27 25 23 17 16 16 16 13 14 15 18 21
6 6 6 9 5 8 4 13 13 32 49 34 46 47 38 32 34 42 40 64 57 67 72 64 64 58 51 48 43 33 32 30 35 34 34 28 23 19 19 17 14 16 16 15 15 15 16 16 15
7 11 7 14 3 5 7 11 13 50 42 46 54 57 57 55 49 43 41 38 52 54 71 70 68 62 62 54 49 41 36 35 35 34 32 26 23 20 17 15 13 14 15 15 13 12 12 13 16
10 8 7 9 9 20 25 32 14 46 40 53 57 64 68 66 64 59 50 40 43 48 65 78 76 71 61 60 55 46 42 37 38 36 33 27 27 23 20 18 16 16 18 18 18 17 15 15 11
4 7 13 7 16 9 18 30 22 36 46 45 61 61 61 67 70 57 52 53 48 44 46 73 85 81 78 70 67 59 53 42 41 40 37 33 29 27 26 24 22 21 23 25 24 22 20 18 15
8 9 11 13 17 7 15 32 23 21 22 34 28 49 57 62 64 52 43 49 55 53 53 48 74 80 78 76 71 70 55 46 43 42 42 39 35 33 31 30 25 24 26 27 26 26 22 20 18
7 9 10 21 5 6 9 16 7 8 17 22 46 56 60 59 66 59 46 48 46 55 60 59 44 63 76 71 78 74 60 53 52 50 46 42 36 35 32 30 26 27 28 25 25 23 20 18 17
7 16 22 14 4 5 4 12 12 7 9 20 48 60 70 73 66 56 54 38 32 33 44 53 49 47 64 72 81 82 71 67 59 52 50 43 39 35 31 30 27 23 18 17 20 20 19 17 17
15 1 7 7 8 2 6 1 15 9 11 19 36 52 64 75 71 63 58 53 30 20 29 44 52 56 62 72 82 85 74 65 55 53 44 40 37 33 30 25 22 19 16 18 17 17 10 15 23
10 7 6 7 2 6 10 14 14 6 9 12 31 46 60 74 77 70 58 56 47 25 17 36 49 56 62 73 79 84 76 64 57 48 44 40 35 32 27 25 24 25 22 17 12 11 11 15 21
12 6 5 6 2 13 3 4 12 11 12 11 23 41 55 75 75 82 73 70 60 47 29 22 38 55 66 72 73 66 68 56 48 43 39 38 36 30 23 24 23 24 21 18 16 15 18 20 16
5 3 7 12 6 7 9 10 3 13 12 22 33 46 62 82 78 76 79 67 64 52 42 25 30 44 60 63 64 52 54 51 43 40 34 31 29 22 20 24 28 28 21 18 16 17 18 18 16
2 6 2 0 7 3 8 6 5 7 20 33 43 53 60 64 77 72 76 68 58 50 39 31 22 31 40 53 54 51 46 47 44 30 31 29 28 22 21 24 25 24 20 17 19 15 18 19 16
7 1 4 4 2 8 10 10 7 13 18 25 34 46 51 62 76 74 69 70 59 38 25 19 12 20 32 44 48 47 43 36 29 28 29 30 27 23 23 28 26 22 21 20 15 8 11 17 20
6 3 7 5 1 6 7 11 10 10 12 19 31 44 49 49 53 68 63 62 63 37 12 6 4 10 19 23 25 26 27 37 28 26 29 27 21 22 22 24 27 29 24 23 17 8 11 18 18
3 4 7 7 6 3 1 16 8 12 24 37 42 55 58 64 62 63 58 58 59 53 22 15 11 9 9 8 11 11 28 29 27 29 28 24 23 22 24 22 24 30 26 23 19 16 10 14 17
Wind_Direction_500mb
154 160 28 360 49 60 281 283 264 325 346 358 45 69 123 45 148 212 213 160 167 181 175 175 178 183 181 179 171 165 166 154 166 165 152 134 138 140 138 126 91 69 72 71 79 83 80 75 71
127 136 79 68 79 62 274 262 256 281 313 273 14 6 32 352 354 182 144 162 166 185 181 180 181 183 181 167 169 168 162 167 171 171 159 153 143 140 148 141 111 66 65 69 85 83 78 76 75
113 114 95 94 99 183 228 261 278 309 311 256 131 64 56 245 182 147 167 168 163 180 186 185 185 185 186 179 179 181 167 164 177 176 166 152 162 149 154 150 137 76 62 72 90 96 88 84 82
145 134 71 88 194 236 210 270 289 313 335 98 138 109 170 167 143 160 168 169 173 183 190 189 188 187 190 188 191 192 196 196 188 179 172 162 170 157 154 159 159 109 67 73 94 103 96 87 78
155 88 60 100 250 271 254 283 303 271 291 349 276 221 266 213 172 170 170 170 175 181 187 191 189 192 191 190 190 188 191 194 201 193 185 172 173 177 164 172 176 145 89 80 105 112 103 93 80
69 71 57 266 263 268 286 311 289 255 16 331 333 94 239 208 201 193 178 164 159 175 184 190 193 198 199 195 195 195 196 197 196 200 191 182 187 186 178 181 185 172 124 97 123 127 114 98 82
120 95 200 251 267 301 278 345 43 334 317 39 307 200 279 227 202 202 176 166 160 167 186 193 196 200 205 208 207 204 202 200 200 201 198 192 191 193 192 199 195 187 164 128 136 140 126 105 89
108 89 157 231 224 261 331 1 12 22 294 23 29 255 299 281 206 193 181 175 172 171 181 193 197 203 209 208 208 209 209 210 204 205 200 202 197 212 209 201 200 196 186 157 126 151 140 137 109
128 59 246 254 166 256 344 20 351 332 298 327 324 302 292 293 211 200 193 190 190 191 194 195 194 203 210 212 211 213 210 208 203 210 206 210 212 217 216 218 211 205 197 187 172 145 170 188 143
100 121 226 222 228 293 321 344 328 325 312 310 311 314 310 270 223 212 209 208 207 208 205 206 206 208 212 218 220 221 218 215 213 213 223 219 221 219 222 221 214 214 210 191 185 185 206 209 204
166 197 216 270 259 303 314 307 309 287 289 275 299 314 326 287 217 218 219 221 227 219 217 217 215 217 224 236 233 225 222 223 226 221 223 222 222 224 223 225 220 218 212 206 196 207 210 221 214
259 259 246 283 292 304 273 288 257 233 268 286 291 290 295 287 219 220 225 231 234 233 226 225 222 223 230 233 240 235 236 230 225 226 226 228 225 227 228 232 221 224 223 223 212 210 209 215 214
207 270 287 284 295 290 286 265 249 260 281 287 276 274 277 266 241 236 236 235 239 241 238 229 225 229 231 232 249 236 235 232 229 228 228 229 227 226 227 227 237 241 241 235 231 214 206 206 215
283 274 281 294 289 279 248 276 211 285 316 309 290 274 271 258 257 250 246 247 244 240 244 240 228 229 232 225 244 237 232 233 227 231 227 228 224 221 225 239 241 240 239 237 216 219 218 214 222
273 307 318 275 277 263 241 279 224 297 338 332 321 294 273 268 266 268 258 245 245 245 234 237 237 229 235 229 236 239 237 238 234 232 223 216 219 226 225 234 238 237 238 239 232 239 238 232 232
341 57 328 293 346 299 109 275 303 334 331 323 328 323 315 301 285 290 296 250 250 240 238 235 237 233 235 230 230 234 232 235 235 225 218 212 209 214 216 223 230 239 243 246 255 251 246 245 247
347 257 246 314 331 327 52 285 286 314 312 310 316 308 306 303 297 292 297 281 250 247 239 234 235 232 233 231 227 229 230 231 224 220 215 206 207 199 191 187 203 219 229 239 248 252 253 257 257
216 241 243 251 299 318 312 288 276 300 296 300 304 305 303 303 298 293 290 280 272 257 242 242 238 239 236 232 228 224 226 226 216 218 218 222 221 217 210 206 211 228 237 249 255 260 265 261 253
149 214 251 256 270 284 261 279 277 285 291 286 292 305 317 325 315 299 287 271 269 266 252 237 240 240 234 230 220 216 222 217 218 217 222 221 226 231 227 226 229 236 243 247 255 263 263 260 222
202 265 270 272 251 177 270 281 279 268 268 286 343 347 340 330 334 307 296 278 261 266 254 243 239 236 235 225 222 218 215 217 220 217 218 224 230 228 230 235 240 245 247 249 257 260 263 248 230
248 230 231 250 308 263 291 289 194 292 286 27 8 355 356 352 344 342 319 299 271 258 242 235 237 237 232 221 214 214 211 215 215 215 218 226 231 230 232 237 239 245 246 249 254 257 253 246 232
262 237 251 261 45 241 69 290 304 306 336 20 5 356 357 353 354 354 345 330 299 266 245 225 230 238 227 219 213 213 208 208 212 221 220 225 225 227 232 241 241 229 245 248 250 251 246 236 235
229 294 257 250 199 232 182 133 272 340 301 5 350 353 354 358 359 359 359 349 336 281 237 228 225 230 228 221 216 214 210 212 214 214 217 218 221 230 237 241 234 233 241 245 247 247 245 241 236
324 292 29 29 158 278 196 178 278 324 9 342 345 356 355 356 0 359 0 0 359 346 274 237 225 224 228 222 215 216 209 210 212 211 211 220 226 228 241 244 216 221 225 246 225 215 224 248 245
18 78 312 296 212 240 130 181 247 76 39 345 337 354 5 7 3 1 357 354 354 355 340 276 243 231 227 221 214 219 214 212 213 213 215 222 227 236 237 215 201 215 220 216 210 215 240 244 251
15 30 178 235 214 268 326 241 150 99 70 18 4 2 13 9 3 1 359 353 351 346 340 313 268 246 233 223 206 210 223 218 214 215 217 219 227 223 217 198 204 213 224 216 206 227 247 240 232
326 77 120 114 302 47 243 277 169 32 25 16 11 5 2 3 2 360 358 359 348 338 336 323 284 248 235 228 206 195 217 229 231 205 211 212 208 211 208 209 211 224 217 208 212 221 235 232 218
62 203 132 81 259 247 290 273 225 28 13 3 2 4 355 354 356 355 352 354 351 335 337 336 290 243 217 202 198 196 203 229 216 217 210 198 201 207 202 210 213 215 208 210 208 219 198 177 167
345 36 52 83 57 210 288 265 125 74 19 350 337 341 342 344 345 344 344 342 350 333 327 285 192 169 158 176 186 194 217 213 211 200 189 193 201 204 205 217 223 195 209 198 200 154 161 170 180
156 118 99 139 201 203 189 270 120 335 324 324 323 318 323 328 328 332 334 343 338 348 310 260 224 223 187 194 233 197 184 190 191 187 182 192 190 187 202 197 191 197 202 199 192 190 198 207 214
Wind_Speed_850mb
5 6 1 3 7 9 4 8 3 11 8 9 3 3 4 4 3 7 4 21 29 37 43 43 39 35 29 24 22 21 24 20 20 18 13 14 16 16 14 11 11 14 18 19 20 21 24 20 25
7 6 4 6 9 5 8 7 3 4 5 4 7 9 9 5 2 3 20 17 31 32 39 37 35 31 28 24 21 23 21 23 20 17 15 14 13 14 12 10 7 11 16 18 19 21 22 22 24
9 7 3 9 6 5 6 5 6 10 13 6 4 7 2 1 1 17 3 13 29 32 35 34 31 28 26 28 27 23 19 20 18 17 14 16 11 11 11 9 8 8 13 16 17 19 18 19 22
5 5 9 7 8 10 9 7 9 18 5 1 6 4 5 6 10 7 11 16 22 28 32 31 29 27 25 23 23 22 20 17 16 16 15 18 16 10 10 11 9 6 9 12 14 14 16 16 18
6 4 7 4 7 9 8 12 15 7 5 4 2 3 4 9 12 10 10 16 18 27 32 32 31 28 26 24 22 20 19 18 17 17 16 18 13 9 12 11 10 6 6 9 10 10 14 12 14
5 5 7 4 8 8 11 11 9 4 5 6 7 1 3 10 13 12 16 16 19 20 31 31 27 27 26 25 24 21 19 18 17 15 16 17 15 11 11 12 12 8 5 6 8 8 9 10 11
11 7 6 4 6 10 5 21 6 8 7 6 6 3 6 16 21 16 19 20 22 22 25 29 29 28 26 25 22 20 18 17 15 14 16 13 15 13 12 11 12 13 7 5 7 9 6 7 9
5 7 6 8 6 9 6 15 5 15 1 10 3 3 9 14 25 24 26 25 25 24 24 26 29 29 30 31 28 24 20 18 15 14 15 14 15 16 16 13 12 14 11 6 5 8 6 5 7
6 7 3 8 10 7 8 14 9 22 11 16 8 15 16 16 27 32 34 34 33 31 30 32 31 29 28 29 30 27 25 21 17 16 17 17 18 19 17 15 14 16 13 10 5 4 5 3 5
8 6 13 7 6 2 12 8 26 17 25 15 25 19 22 22 36 43 43 40 39 38 37 35 34 30 27 26 30 30 28 26 23 18 18 19 20 19 18 17 16 16 14 11 9 7 7 7 7
7 10 7 8 14 14 11 19 12 11 13 11 17 25 25 19 45 50 49 46 41 44 41 40 36 28 28 26 32 34 33 30 27 24 21 22 24 25 22 21 19 17 15 12 11 10 10 10 10
3 16 14 13 11 16 8 19 9 24 49 43 39 33 36 27 50 57 56 53 50 50 48 45 41 34 34 25 33 32 34 33 30 28 26 25 27 25 22 21 18 17 14 13 13 13 12 15 13
6 8 19 27 31 30 29 27 19 31 56 54 52 47 39 34 38 50 54 58 61 60 51 50 48 44 38 27 28 34 32 34 28 28 28 28 28 26 25 24 24 19 16 12 12 16 16 17 18
4 15 20 23 36 34 16 23 1 45 32 38 40 45 43 39 35 45 56 60 65 62 55 49 52 47 44 32 26 31 30 30 31 31 29 29 29 27 29 25 22 21 20 17 13 16 17 21 23
9 10 15 18 14 8 1 7 12 22 32 39 31 32 37 40 37 43 57 65 67 70 60 54 60 51 44 40 32 30 30 29 32 32 32 31 28 27 25 23 17 16 16 16 13 14 15 18 21
6 6 6 9 5 8 4 13 13 32 49 34 46 47 38 32 34 42 40 64 57 67 72 64 64 58 51 48 43 33 32 30 35 34 34 28 23 19 19 17 14 16 16 15 15 15 16 16 15
7 11 7 14 3 5 7 11 13 50 42 46 54 57 57 55 49 43 41 38 52 54 71 70 68 62 62 54 49 41 36 35 35 34 32 26 23 20 17 15 13 14 15 15 13 12 12 13 16
10 8 7 9 9 20 25 32 14 46 40 53 57 64 68 66 64 59 50 40 43 48 65 78 76 71 61 60 55 46 42 37 38 36 33 27 27 23 20 18 16 16 18 18 18 17 15 15 11
4 7 13 7 16 9 18 30 22 36 46 45 61 61 61 67 70 57 52 53 48 44 46 73 85 81 78 70 67 59 53 42 41 40 37 33 29 27 26 24 22 21 23 25 24 22 20 18 15
8 9 11 13 17 7 15 32 23 21 22 34 28 49 57 62 64 52 43 49 55 53 53 48 74 80 78 76 71 70 55 46 43 42 42 39 35 33 31 30 25 24 26 27 26 26 22 20 18
7 9 10 21 5 6 9 16 7 8 17 22 46 56 60 59 66 59 46 48 46 55 60 59 44 63 76 71 78 74 60 53 52 50 46 42 36 35 32 30 26 27 28 25 25 23 20 18 17
7 16 22 14 4 5 4 12 12 7 9 20 48 60 70 73 66 56 54 38 32 33 44 53 49 47 64 72 81 82 71 67 59 52 50 43 39 35 31 30 27 23 18 17 20 20 19 17 17
15 1 7 7 8 2 6 1 15 9 11 19 36 52 64 75 71 63 58 53 30 20 29 44 52 56 62 72 82 85 74 65 55 53 44 40 37 33 30 25 22 19 16 18 17 17 10 15 23
10 7 6 7 2 6 10 14 14 6 9 12 31 46 60 74 77 70 58 56 47 25 17 36 49 56 62 73 79 84 76 64 57 48 44 40 35 32 27 25 24 25 22 17 12 11 11 15 21
12 6 5 6 2 13 3 4 12 11 12 11 23 41 55 75 75 82 73 70 60 47 29 22 38 55 66 72 73 66 68 56 48 43 39 38 36 30 23 24 23 24 21 18 16 15 18 20 16
5 3 7 12 6 7 9 10 3 13 12 22 33 46 62 82 78 76 79 67 64 52 42 25 30 44 60 63 64 52 54 51 43 40 34 31 29 22 20 24 28 28 21 18 16 17 18 18 16
2 6 2 0 7 3 8 6 5 7 20 33 43 53 60 64 77 72 76 68 58 50 39 31 22 31 40 53 54 51 46 47 44 30 31 29 28 22 21 24 25 24 20 17 19 15 18 19 16
7 1 4 4 2 8 10 10 7 13 18 25 34 46 51 62 76 74 69 70 59 38 25 19 12 20 32 44 48 47 43 36 29 28 29 30 27 23 23 28 26 22 21 20 15 8 11 17 20
6 3 7 5 1 6 7 11 10 10 12 19 31 44 49 49 53 68 63 62 63 37 12 6 4 10 19 23 25 26 27 37 28 26 29 27 21 22 22 24 27 29 24 23 17 8 11 18 18
3 4 7 7 6 3 1 16 8 12 24 37 42 55 58 64 62 63 58 58 59 53 22 15 11 9 9 8 11 11 28 29 27 29 28 24 23 22 24 22 24 30 26 23 19 16 10 14 17
Wind_Direction_850mb
154 160 28 360 49 60 281 283 264 325 346 358 45 69 123 45 148 212 213 160 167 181 175 175 178 183 181 179 171 165 166 154 166 165 152 134 138 140 138 126 91 69 72 71 79 83 80 75 71
127 136 79 68 79 62 274 262 256 281 313 273 14 6 32 352 354 182 144 162 166 185 181 180 181 183 181 167 169 168 162 167 171 171 159 153 143 140 148 141 111 66 65 69 85 83 78 76 75
113 114 95 94 99 183 228 261 278 309 311 256 131 64 56 245 182 147 167 168 163 180 186 185 185 185 186 179 179 181 167 164 177 176 166 152 162 149 154 150 137 76 62 72 90 96 88 84 82
145 134 71 88 194 236 210 270 289 313 335 98 138 109 170 167 143 160 168 169 173 183 190 189 188 187 190 188 191 192 196 196 188 179 172 162 170 157 154 159 159 109 67 73 94 103 96 87 78
155 88 60 100 250 271 254 283 303 271 291 349 276 221 266 213 172 170 170 170 175 181 187 191 189 192 191 190 190 188 191 194 201 193 185 172 173 177 164 172 176 145 89 80 105 112 103 93 80
69 71 57 266 263 268 286 311 289 255 16 331 333 94 239 208 201 193 178 164 159 175 184 190 193 198 199 195 195 195 196 197 196 200 191 182 187 186 178 181 185 172 124 97 123 127 114 98 82
120 95 200 251 267 301 278 345 43 334 317 39 307 200 279 227 202 202 176 166 160 167 186 193 196 200 205 208 207 204 202 200 200 201 198 192 191 193 192 199 195 187 164 128 136 140 126 105 89
108 89 157 231 224 261 331 1 12 22 294 23 29 255 299 281 206 193 181 175 172 171 181 193 197 203 209 208 208 209 209 210 204 205 200 202 197 212 209 201 200 196 186 157 126 151 140 137 109
128 59 246 254 166 256 344 20 351 332 298 327 324 302 292 293 211 200 193 190 190 191 194 195 194 203 210 212 211 213 210 208 203 210 206 210 212 217 216 218 211 205 197 187 172 145 170 188 143
100 121 226 222 228 293 321 344 328 325 312 310 311 314 310 270 223 212 209 208 207 208 205 206 206 208 212 218 220 221 218 215 213 213 223 219 221 219 222 221 214 214 210 191 185 185 206 209 204
166 197 216 270 259 303 314 307 309 287 289 275 299 314 326 287 217 218 219 221 227 219 217 217 215 217 224 236 233 225 222 223 226 221 223 222 222 224 223 225 220 218 212 206 196 207 210 221 214
259 259 246 283 292 304 273 288 257 233 268 286 291 290 295 287 219 220 225 231 234 233 226 225 222 223 230 233 240 235 236 230 225 226 226 228 225 227 228 232 221 224 223 223 212 210 209 215 214
207 270 287 284 295 290 286 265 249 260 281 287 276 274 277 266 241 236 236 235 239 241 238 229 225 229 231 232 249 236 235 232 229 228 228 229 227 226 227 227 237 241 241 235 231 214 206 206 215
283 274 281 294 289 279 248 276 211 285 316 309 290 274 271 258 257 250 246 247 244 240 244 240 228 229 232 225 244 237 232 233 227 231 227 228 224 221 225 239 241 240 239 237 216 219 218 214 222
273 307 318 275 277 263 241 279 224 297 338 332 321 294 273 268 266 268 258 245 245 245 234 237 237 229 235 229 236 239 237 238 234 232 223 216 219 226 225 234 238 237 238 239 232 239 238 232 232
341 57 328 293 346 299 109 275 303 334 331 323 328 323 315 301 285 290 296 250 250 240 238 235 237 233 235 230 230 234 232 235 235 225 218 212 209 214 216 223 230 239 243 246 255 251 246 245 247
347 257 246 314 331 327 52 285 286 314 312 310 316 308 306 303 297 292 297 281 250 247 239 234 235 232 233 231 227 229 230 231 224 220 215 206 207 199 191 187 203 219 229 239 248 252 253 257 257
216 241 243 251 299 318 312 288 276 300 296 300 304 305 303 303 298 293 290 280 272 257 242 242 238 239 236 232 228 224 226 226 216 218 218 222 221 217 210 206 211 228 237 249 255 260 265 261 253
149 214 251 256 270 284 261 279 277 285 291 286 292 305 317 325 315 299 287 271 269 266 252 237 240 240 234 230 220 216 222 217 218 217 222 221 226 231 227 226 229 236 243 247 255 263 263 260 222
202 265 270 272 251 177 270 281 279 268 268 286 343 347 340 330 334 307 296 278 261 266 254 243 239 236 235 225 222 218 215 217 220 217 218 224 230 228 230 235 240 245 247 249 257 260 263 248 230
248 230 231 250 308 263 291 289 194 292 286 27 8 355 356 352 344 342 319 299 271 258 242 235 237 237 232 221 214 214 211 215 215 215 218 226 231 230 232 237 239 245 246 249 254 257 253 246 232
262 237 251 261 45 241 69 290 304 306 336 20 5 356 357 353 354 354 345 330 299 266 245 225 230 238 227 219 213 213 208 208 212 221 220 225 225 227 232 241 241 229 245 248 250 251 246 236 235
229 294 257 250 199 232 182 133 272 340 301 5 350 353 354 358 359 359 359 349 336 281 237 228 225 230 228 221 216 214 210 212 214 214 217 218 221 230 237 241 234 233 241 245 247 247 245 241 236
324 292 29 29 158 278 196 178 278 324 9 342 345 356 355 356 0 359 0 0 359 346 274 237 225 224 228 222 215 216 209 210 212 211 211 220 226 228 241 244 216 221 225 246 225 215 224 248 245
18 78 312 296 212 240 130 181 247 76 39 345 337 354 5 7 3 1 357 354 354 355 340 276 243 231 227 221 214 219 214 212 213 213 215 222 227 236 237 215 201 215 220 216 210 215 240 244 251
15 30 178 235 214 268 326 241 150 99 70 18 4 2 13 9 3 1 359 353 351 346 340 313 268 246 233 223 206 210 223 218 214 215 217 219 227 223 217 198 204 213 224 216 206 227 247 240 232
326 77 120 114 302 47 243 277 169 32 25 16 11 5 2 3 2 360 358 359 348 338 336 323 284 248 235 228 206 195 217 229 231 205 211 212 208 211 208 209 211 224 217 208 212 221 235 232 218
62 203 132 81 259 247 290 273 225 28 13 3 2 4 355 354 356 355 352 354 351 335 337 336 290 243 217 202 198 196 203 229 216 217 210 198 201 207 202 210 213 215 208 210 208 219 198 177 167
345 36 52 83 57 210 288 265 125 74 19 350 337 341 342 344 345 344 344 342 350 333 327 285 192 169 158 176 186 194 217 213 211 200 189 193 201 204 205 217 223 195 209 198 200 154 161 170 180
156 118 99 139 201 203 189 270 120 335 324 324 323 318 323 328 328 332 334 343 338 348 310 260 224 223 187 194 233 197 184 190 191 187 182 192 190 187 202 197 191 197 202 199 192 190 198 207 214